Terug naar catalogus

GEESAT 4-07

ActiefCommunicatieLEO
NORAD 65125·PAYLOAD·🇨🇳 China

Gelanceerd Aug 8, 2025 vanaf Yellow Sea Launch Area

Loading…

Volgende Passages (komende 24 uur)

TLE

VersSource: Space-Track

Epoch: Sep 14, 2026, 14:42 UTC

1 65125U 25170G   26257.61258079  .00001193  00000-0  16798-3 0  9992
2 65125  49.9914 119.4211 0017979  37.2458 322.9724 14.84237427 59711

Volg GEESAT 4-07 in realtime met AllMySat

Download on the App Store